Live-Position
3D-Globus wird geladen...
Über Starlink 5372
Group: 3 satellites
Beschreibung wird geladen...
Nächste Überflüge
Passes for default location (London). Set your location on the main map for personalized predictions.
Höhenverlauf
Loading altitude history...
No altitude history available
Zweizeiliger Elementsatz
1 54838U 22177U 26123.17376024 .00000617 00000-0 32685-4 0 9993
2 54838 43.0024 185.1541 0001462 269.9712 90.0971 15.26740288185291
Epoch: 3. Mai 2026 •
Age: 5 hours
Aktueller Status
Höhe 489.6 km
Geschwindigkeit 7.63 km/s
Subsatellitenpunkt 42.50°N,
98.06°W
Startdatum 28. Dez. 2022
Alter 3.3 years
Typ internet
Startgruppe
Falcon 9 •
Group 5-1 •
46 satellites
Starlink 5382
54820
Starlink 5385 54821
Starlink 5101 54822
Starlink 5106 54823
Starlink 4643 54824
Starlink 5107 54826
Starlink 5383 54827
Starlink 5381 54828
Starlink 5394 54830
Starlink 5395 54831
Starlink 5386 54834
Starlink 5389 54835
Starlink 5384 54836
Starlink 5369 54837
Starlink 5368 54840
Starlink 4659 54841
Starlink 5387 54842
Starlink 5304 54843
Starlink 5388 54844
Starlink 5082 54845
...and 25 more
Technische Details
Klassifizierung Payload
Masse 305.00 kg
Trockenmasse 290.00 kg
Gesamtmasse 305.00 kg
Länge 0.20 m
Durchmesser 2.80 m
Spannweite 9.00 m
Form Box + pan
Hersteller SPXS
Bus-Typ Starlink
Phasenstatus In Orbit
Besitzer/Staat SPXS/US
Most Searched
Loading...